Time,TemperatureF,DewpointF,PressureIn,WindDirection,WindDirectionDegrees,WindSpeedMPH,WindSpeedGustMPH,Humidity,HourlyPrecipIn,Conditions,Clouds,dailyrainin,SoftwareType,DateUTC
2013-06-16 00:02:00,67.0,54.0,30.00,NW,309,0.0,-999.0,62,-99.99,,,-99.99,,2013-06-16 04:02:00,
2013-06-16 00:12:00,67.0,54.0,30.00,NW,307,0.0,-999.0,62,-99.99,,,-99.99,,2013-06-16 04:12:00,
2013-06-16 00:23:00,66.0,53.0,30.01,NW,308,0.0,-999.0,62,-99.99,,,-99.99,,2013-06-16 04:23:00,
2013-06-16 00:34:00,66.0,53.0,30.01,NW,308,0.0,-999.0,62,-99.99,,,-99.99,,2013-06-16 04:34:00,
2013-06-16 00:43:00,66.0,54.0,30.01,NW,308,0.0,-999.0,65,-99.99,,,-99.99,,2013-06-16 04:43:00,
2013-06-16 00:53:00,65.0,54.0,30.00,NW,308,0.0,-999.0,67,-99.99,,,-99.99,,2013-06-16 04:53:00,
2013-06-16 01:02:00,65.0,54.0,30.00,NW,308,0.0,-999.0,67,-99.99,,,-99.99,,2013-06-16 05:02:00,
2013-06-16 01:12:00,63.0,52.0,30.00,NW,308,0.0,-999.0,68,-99.99,,,-99.99,,2013-06-16 05:12:00,
2013-06-16 01:22:00,63.0,51.0,30.00,NW,308,0.0,-999.0,66,-99.99,,,-99.99,,2013-06-16 05:22:00,
2013-06-16 01:34:00,63.0,51.0,30.00,NW,308,0.0,-999.0,66,-99.99,,,-99.99,,2013-06-16 05:34:00,
2013-06-16 01:43:00,64.0,53.0,30.00,NW,307,0.0,-999.0,67,-99.99,,,-99.99,,2013-06-16 05:43:00,
2013-06-16 01:52:00,63.0,54.0,30.00,NW,307,0.0,-999.0,72,-99.99,,,-99.99,,2013-06-16 05:52:00,
2013-06-16 02:01:00,63.0,54.0,30.00,NW,307,0.0,-999.0,72,-99.99,,,-99.99,,2013-06-16 06:01:00,
2013-06-16 02:12:00,62.0,54.0,30.00,NW,308,0.0,-999.0,75,-99.99,,,-99.99,,2013-06-16 06:12:00,
2013-06-16 02:23:00,62.0,54.0,30.00,NW,308,0.0,-999.0,76,-99.99,,,-99.99,,2013-06-16 06:23:00,
2013-06-16 02:33:00,62.0,54.0,30.00,NW,308,0.0,-999.0,76,-99.99,,,-99.99,,2013-06-16 06:33:00,
2013-06-16 02:43:00,62.0,55.0,30.00,NW,307,0.0,-999.0,77,-99.99,,,-99.99,,2013-06-16 06:43:00,
2013-06-16 02:52:00,62.0,55.0,30.00,NW,307,0.0,-999.0,77,-99.99,,,-99.99,,2013-06-16 06:52:00,
2013-06-16 03:01:00,62.0,55.0,30.00,NW,307,0.0,-999.0,77,-99.99,,,-99.99,,2013-06-16 07:01:00,
2013-06-16 03:12:00,62.0,55.0,29.99,NW,308,0.0,-999.0,78,-99.99,,,-99.99,,2013-06-16 07:12:00,
2013-06-16 03:23:00,63.0,57.0,29.99,NW,308,0.0,-999.0,80,-99.99,,,-99.99,,2013-06-16 07:23:00,
2013-06-16 03:33:00,63.0,57.0,29.99,NW,308,0.0,-999.0,80,-99.99,,,-99.99,,2013-06-16 07:33:00,
2013-06-16 03:43:00,62.0,54.0,29.99,NW,308,0.0,-999.0,76,-99.99,,,-99.99,,2013-06-16 07:43:00,
2013-06-16 03:53:00,62.0,56.0,29.98,NW,307,0.0,-999.0,80,-99.99,,,-99.99,,2013-06-16 07:53:00,
2013-06-16 04:02:00,62.0,56.0,29.98,NW,307,0.0,-999.0,80,-99.99,,,-99.99,,2013-06-16 08:02:00,
2013-06-16 04:12:00,62.0,55.0,29.98,NW,308,0.0,-999.0,79,-99.99,,,-99.99,,2013-06-16 08:12:00,
2013-06-16 04:22:00,62.0,57.0,29.98,NW,307,0.0,-999.0,83,-99.99,,,-99.99,,2013-06-16 08:22:00,
2013-06-16 04:34:00,62.0,57.0,29.98,NW,307,0.0,-999.0,83,-99.99,,,-99.99,,2013-06-16 08:34:00,
2013-06-16 04:43:00,62.0,56.0,29.97,NW,307,0.0,-999.0,80,-99.99,,,-99.99,,2013-06-16 08:43:00,
2013-06-16 04:54:00,62.0,56.0,29.97,NW,307,0.0,-999.0,80,-99.99,,,-99.99,,2013-06-16 08:54:00,
2013-06-16 05:02:00,62.0,56.0,29.97,NW,307,0.0,-999.0,80,-99.99,,,-99.99,,2013-06-16 09:02:00,
2013-06-16 05:11:00,62.0,56.0,29.97,NW,307,0.0,-999.0,80,-99.99,,,-99.99,,2013-06-16 09:11:00,
2013-06-16 05:22:00,62.0,55.0,29.97,NW,307,0.0,-999.0,79,-99.99,,,-99.99,,2013-06-16 09:22:00,
2013-06-16 05:33:00,62.0,55.0,29.97,NW,307,0.0,-999.0,79,-99.99,,,-99.99,,2013-06-16 09:33:00,
2013-06-16 05:43:00,62.0,55.0,29.97,NW,308,0.0,-999.0,79,-99.99,,,-99.99,,2013-06-16 09:43:00,
2013-06-16 05:52:00,63.0,53.0,29.98,NW,307,0.0,-999.0,70,-99.99,,,-99.99,,2013-06-16 09:52:00,
2013-06-16 06:02:00,63.0,52.0,29.98,NW,308,0.0,-999.0,68,-99.99,,,-99.99,,2013-06-16 10:02:00,
2013-06-16 06:12:00,63.0,52.0,29.98,NW,308,0.0,-999.0,68,-99.99,,,-99.99,,2013-06-16 10:12:00,
2013-06-16 06:22:00,64.0,52.0,29.97,NW,308,0.0,-999.0,65,-99.99,,,-99.99,,2013-06-16 10:22:00,
2013-06-16 06:33:00,64.0,52.0,29.97,NW,308,0.0,-999.0,65,-99.99,,,-99.99,,2013-06-16 10:33:00,
2013-06-16 06:43:00,64.0,52.0,29.97,NW,308,0.0,-999.0,64,-99.99,,,-99.99,,2013-06-16 10:43:00,
2013-06-16 06:53:00,64.0,53.0,29.97,NW,307,0.0,-999.0,67,-99.99,,,-99.99,,2013-06-16 10:53:00,
2013-06-16 07:02:00,64.0,53.0,29.97,NW,307,0.0,-999.0,67,-99.99,,,-99.99,,2013-06-16 11:02:00,
2013-06-16 07:12:00,64.0,54.0,29.97,NW,307,0.0,-999.0,70,-99.99,,,-99.99,,2013-06-16 11:12:00,
2013-06-16 07:22:00,64.0,55.0,29.96,SSE,166,0.0,-999.0,72,-99.99,,,-99.99,,2013-06-16 11:22:00,
2013-06-16 07:34:00,64.0,55.0,29.96,SSE,166,0.0,-999.0,72,-99.99,,,-99.99,,2013-06-16 11:34:00,
2013-06-16 07:43:00,66.0,54.0,29.96,SSE,149,1.0,-999.0,66,-99.99,,,-99.99,,2013-06-16 11:43:00,
2013-06-16 07:52:00,66.0,55.0,29.96,SSE,149,1.0,-999.0,67,-99.99,,,-99.99,,2013-06-16 11:52:00,
2013-06-16 08:02:00,66.0,55.0,29.96,SSE,149,1.0,-999.0,67,-99.99,,,-99.99,,2013-06-16 12:02:00,
2013-06-16 08:12:00,66.0,57.0,29.96,SSW,198,1.0,-999.0,73,-99.99,,,-99.99,,2013-06-16 12:12:00,
2013-06-16 08:22:00,66.0,57.0,29.96,SSW,198,1.0,-999.0,73,-99.99,,,-99.99,,2013-06-16 12:22:00,
2013-06-16 08:33:00,66.0,59.0,29.96,SSW,200,0.0,-999.0,78,-99.99,,,-99.99,,2013-06-16 12:33:00,
2013-06-16 08:43:00,67.0,61.0,29.96,SSW,207,0.0,-999.0,80,-99.99,,,-99.99,,2013-06-16 12:43:00,
2013-06-16 08:53:00,68.0,62.0,29.96,West,281,0.0,-999.0,80,-99.99,,,-99.99,,2013-06-16 12:53:00,
2013-06-16 09:01:00,68.0,62.0,29.96,West,281,0.0,-999.0,80,-99.99,,,-99.99,,2013-06-16 13:01:00,
2013-06-16 09:12:00,69.0,62.0,29.95,SW,226,1.0,-999.0,78,-99.99,,,-99.99,,2013-06-16 13:12:00,
2013-06-16 09:22:00,70.0,62.0,29.94,SSW,205,1.0,-999.0,76,-99.99,,,-99.99,,2013-06-16 13:22:00,
2013-06-16 09:34:00,70.0,62.0,29.94,SSW,205,1.0,-999.0,76,-99.99,,,-99.99,,2013-06-16 13:34:00,
2013-06-16 09:43:00,70.0,61.0,29.94,ESE,119,0.0,-999.0,74,-99.99,,,-99.99,,2013-06-16 13:43:00,
2013-06-16 09:53:00,70.0,61.0,29.94,ESE,119,0.0,-999.0,74,-99.99,,,-99.99,,2013-06-16 13:53:00,
2013-06-16 10:02:00,71.0,63.0,29.94,SSW,197,0.0,-999.0,75,-99.99,,,-99.99,,2013-06-16 14:02:00,
2013-06-16 10:12:00,73.0,64.0,29.94,West,262,0.0,-999.0,74,-99.99,,,-99.99,,2013-06-16 14:12:00,
2013-06-16 10:22:00,75.0,63.0,29.93,SE,126,1.0,-999.0,67,-99.99,,,-99.99,,2013-06-16 14:22:00,
2013-06-16 10:34:00,75.0,63.0,29.93,SE,126,1.0,-999.0,67,-99.99,,,-99.99,,2013-06-16 14:34:00,
2013-06-16 10:43:00,76.0,63.0,29.93,WSW,252,1.0,-999.0,64,-99.99,,,-99.99,,2013-06-16 14:43:00,
2013-06-16 10:52:00,75.0,62.0,29.93,WSW,253,0.0,-999.0,65,-99.99,,,-99.99,,2013-06-16 14:52:00,
2013-06-16 11:02:00,75.0,62.0,29.93,WSW,253,0.0,-999.0,65,-99.99,,,-99.99,,2013-06-16 15:02:00,
2013-06-16 11:12:00,74.0,61.0,29.93,WSW,253,1.0,-999.0,64,-99.99,,,-99.99,,2013-06-16 15:12:00,
2013-06-16 11:23:00,74.0,62.0,29.92,West,263,1.0,-999.0,67,-99.99,,,-99.99,,2013-06-16 15:23:00,
2013-06-16 11:34:00,74.0,62.0,29.92,West,263,1.0,-999.0,67,-99.99,,,-99.99,,2013-06-16 15:34:00,
2013-06-16 11:43:00,75.0,64.0,29.91,WSW,249,1.0,-999.0,68,-99.99,,,-99.99,,2013-06-16 15:43:00,
2013-06-16 11:52:00,77.0,63.0,29.91,West,274,1.0,-999.0,62,-99.99,,,-99.99,,2013-06-16 15:52:00,
2013-06-16 12:02:00,77.0,63.0,29.91,West,274,1.0,-999.0,62,-99.99,,,-99.99,,2013-06-16 16:02:00,
2013-06-16 12:12:00,77.0,63.0,29.91,WSW,255,2.0,-999.0,61,-99.99,,,-99.99,,2013-06-16 16:12:00,
2013-06-16 12:23:00,76.0,61.0,29.90,West,270,3.0,-999.0,59,-99.99,,,-99.99,,2013-06-16 16:23:00,
2013-06-16 12:33:00,76.0,61.0,29.90,West,270,3.0,-999.0,59,-99.99,,,-99.99,,2013-06-16 16:33:00,
2013-06-16 12:43:00,76.0,62.0,29.89,West,267,2.0,-999.0,62,-99.99,,,-99.99,,2013-06-16 16:43:00,
2013-06-16 12:53:00,77.0,62.0,29.89,West,269,3.0,-999.0,60,-99.99,,,-99.99,,2013-06-16 16:53:00,
2013-06-16 13:02:00,77.0,62.0,29.89,West,269,3.0,-999.0,60,-99.99,,,-99.99,,2013-06-16 17:02:00,
2013-06-16 13:12:00,77.0,63.0,29.88,NNE,12,3.0,-999.0,63,-99.99,,,-99.99,,2013-06-16 17:12:00,
2013-06-16 13:22:00,77.0,63.0,29.88,NNE,12,3.0,-999.0,63,-99.99,,,-99.99,,2013-06-16 17:22:00,
2013-06-16 13:34:00,77.0,63.0,29.88,WSW,257,3.0,-999.0,63,-99.99,,,-99.99,,2013-06-16 17:34:00,
2013-06-16 13:43:00,78.0,64.0,29.87,West,266,2.0,-999.0,63,-99.99,,,-99.99,,2013-06-16 17:43:00,
2013-06-16 13:53:00,78.0,64.0,29.87,West,263,3.0,-999.0,63,-99.99,,,-99.99,,2013-06-16 17:53:00,
2013-06-16 14:02:00,78.0,64.0,29.87,West,263,3.0,-999.0,63,-99.99,,,-99.99,,2013-06-16 18:02:00,
2013-06-16 14:12:00,79.0,64.0,29.86,WSW,257,3.0,-999.0,60,-99.99,,,-99.99,,2013-06-16 18:12:00,
2013-06-16 14:22:00,80.0,65.0,29.87,West,266,4.0,-999.0,61,-99.99,,,-99.99,,2013-06-16 18:22:00,
2013-06-16 14:34:00,80.0,65.0,29.87,West,266,4.0,-999.0,61,-99.99,,,-99.99,,2013-06-16 18:34:00,
2013-06-16 14:43:00,79.0,64.0,29.87,West,277,4.0,-999.0,61,-99.99,,,-99.99,,2013-06-16 18:43:00,
2013-06-16 14:52:00,79.0,64.0,29.87,West,277,4.0,-999.0,61,-99.99,,,-99.99,,2013-06-16 18:52:00,
2013-06-16 15:01:00,79.0,65.0,29.87,WNW,288,4.0,-999.0,62,-99.99,,,-99.99,,2013-06-16 19:01:00,
2013-06-16 15:12:00,78.0,65.0,29.87,West,262,4.0,-999.0,64,-99.99,,,-99.99,,2013-06-16 19:12:00,
2013-06-16 15:22:00,78.0,66.0,29.87,West,277,3.0,-999.0,66,-99.99,,,-99.99,,2013-06-16 19:22:00,
2013-06-16 15:34:00,78.0,66.0,29.87,West,277,3.0,-999.0,66,-99.99,,,-99.99,,2013-06-16 19:34:00,
2013-06-16 15:43:00,78.0,66.0,29.86,West,276,4.0,-999.0,67,-99.99,,,-99.99,,2013-06-16 19:43:00,
2013-06-16 15:53:00,79.0,67.0,29.86,West,260,3.0,-999.0,67,-99.99,,,-99.99,,2013-06-16 19:53:00,
2013-06-16 16:02:00,79.0,67.0,29.86,West,260,3.0,-999.0,67,-99.99,,,-99.99,,2013-06-16 20:02:00,
2013-06-16 16:12:00,79.0,65.0,29.86,WNW,284,4.0,-999.0,63,-99.99,,,-99.99,,2013-06-16 20:12:00,
2013-06-16 16:22:00,78.0,65.0,29.86,West,266,4.0,-999.0,65,-99.99,,,-99.99,,2013-06-16 20:22:00,
2013-06-16 16:33:00,78.0,65.0,29.86,West,266,4.0,-999.0,65,-99.99,,,-99.99,,2013-06-16 20:33:00,
2013-06-16 16:42:00,79.0,66.0,29.86,WNW,285,3.0,-999.0,65,-99.99,,,-99.99,,2013-06-16 20:42:00,
2013-06-16 16:53:00,80.0,66.0,29.86,West,266,4.0,-999.0,63,-99.99,,,-99.99,,2013-06-16 20:53:00,
2013-06-16 17:02:00,80.0,66.0,29.86,West,266,4.0,-999.0,63,-99.99,,,-99.99,,2013-06-16 21:02:00,
2013-06-16 17:11:00,79.0,66.0,29.86,West,277,4.0,-999.0,64,-99.99,,,-99.99,,2013-06-16 21:11:00,
2013-06-16 17:22:00,78.0,65.0,29.86,West,267,4.0,-999.0,65,-99.99,,,-99.99,,2013-06-16 21:22:00,
2013-06-16 17:33:00,78.0,65.0,29.86,West,267,4.0,-999.0,65,-99.99,,,-99.99,,2013-06-16 21:33:00,
2013-06-16 17:42:00,77.0,65.0,29.86,West,274,3.0,-999.0,66,-99.99,,,-99.99,,2013-06-16 21:42:00,
2013-06-16 17:53:00,77.0,66.0,29.86,WSW,252,3.0,-999.0,68,-99.99,,,-99.99,,2013-06-16 21:53:00,
2013-06-16 18:02:00,77.0,66.0,29.86,WSW,252,3.0,-999.0,68,-99.99,,,-99.99,,2013-06-16 22:02:00,
2013-06-16 18:12:00,77.0,66.0,29.86,West,262,2.0,-999.0,68,-99.99,,,-99.99,,2013-06-16 22:12:00,
2013-06-16 18:22:00,76.0,65.0,29.87,WNW,285,1.0,-999.0,70,-99.99,,,-99.99,,2013-06-16 22:22:00,
2013-06-16 18:32:00,76.0,65.0,29.87,WNW,285,1.0,-999.0,70,-99.99,,,-99.99,,2013-06-16 22:32:00,
2013-06-16 18:42:00,76.0,66.0,29.87,West,269,1.0,-999.0,71,-99.99,,,-99.99,,2013-06-16 22:42:00,
2013-06-16 18:52:00,76.0,65.0,29.87,WNW,298,2.0,-999.0,70,-99.99,,,-99.99,,2013-06-16 22:52:00,
2013-06-16 19:02:00,76.0,65.0,29.87,WNW,298,2.0,-999.0,70,-99.99,,,-99.99,,2013-06-16 23:02:00,
2013-06-16 19:11:00,76.0,66.0,29.87,WNW,284,1.0,-999.0,71,-99.99,,,-99.99,,2013-06-16 23:11:00,
2013-06-16 19:22:00,76.0,66.0,29.87,West,267,2.0,-999.0,71,-99.99,,,-99.99,,2013-06-16 23:22:00,
2013-06-16 19:32:00,76.0,66.0,29.87,West,267,2.0,-999.0,71,-99.99,,,-99.99,,2013-06-16 23:32:00,
2013-06-16 19:42:00,76.0,66.0,29.87,WNW,285,2.0,-999.0,71,-99.99,,,-99.99,,2013-06-16 23:42:00,
2013-06-16 19:52:00,76.0,66.0,29.87,West,271,1.0,-999.0,71,-99.99,,,-99.99,,2013-06-16 23:52:00,
2013-06-16 20:02:00,76.0,66.0,29.87,West,271,1.0,-999.0,71,-99.99,,,-99.99,,2013-06-17 00:02:00,
2013-06-16 20:12:00,75.0,65.0,29.88,WNW,288,1.0,-999.0,72,-99.99,,,-99.99,,2013-06-17 00:12:00,
2013-06-16 20:22:00,75.0,66.0,29.88,WSW,253,1.0,-999.0,73,-99.99,,,-99.99,,2013-06-17 00:22:00,
2013-06-16 20:32:00,75.0,66.0,29.88,WSW,253,1.0,-999.0,73,-99.99,,,-99.99,,2013-06-17 00:32:00,
2013-06-16 20:43:00,75.0,66.0,29.87,WNW,295,1.0,-999.0,74,-99.99,,,-99.99,,2013-06-17 00:43:00,
2013-06-16 20:52:00,74.0,65.0,29.87,WNW,285,3.0,-999.0,74,-99.99,,,-99.99,,2013-06-17 00:52:00,
2013-06-16 21:02:00,74.0,65.0,29.87,WNW,285,3.0,-999.0,74,-99.99,,,-99.99,,2013-06-17 01:02:00,
2013-06-16 21:12:00,75.0,65.0,29.88,West,263,3.0,-999.0,71,-99.99,,,-99.99,,2013-06-17 01:12:00,
2013-06-16 21:22:00,75.0,64.0,29.88,WNW,291,3.0,-999.0,69,-99.99,,,-99.99,,2013-06-17 01:22:00,
2013-06-16 21:32:00,75.0,64.0,29.88,WNW,291,3.0,-999.0,69,-99.99,,,-99.99,,2013-06-17 01:32:00,
2013-06-16 21:43:00,75.0,64.0,29.88,West,276,2.0,-999.0,69,-99.99,,,-99.99,,2013-06-17 01:43:00,
2013-06-16 21:53:00,74.0,63.0,29.89,West,264,2.0,-999.0,69,-99.99,,,-99.99,,2013-06-17 01:53:00,
2013-06-16 22:03:00,74.0,63.0,29.89,West,264,2.0,-999.0,69,-99.99,,,-99.99,,2013-06-17 02:03:00,
2013-06-16 22:12:00,74.0,63.0,29.90,West,276,3.0,-999.0,69,-99.99,,,-99.99,,2013-06-17 02:12:00,
2013-06-16 22:22:00,74.0,63.0,29.90,West,274,3.0,-999.0,69,-99.99,,,-99.99,,2013-06-17 02:22:00,
2013-06-16 22:34:00,74.0,63.0,29.90,West,274,3.0,-999.0,69,-99.99,,,-99.99,,2013-06-17 02:34:00,
2013-06-16 22:43:00,74.0,63.0,29.90,WNW,283,3.0,-999.0,69,-99.99,,,-99.99,,2013-06-17 02:43:00,
2013-06-16 22:53:00,74.0,63.0,29.89,West,276,3.0,-999.0,69,-99.99,,,-99.99,,2013-06-17 02:53:00,
2013-06-16 23:02:00,74.0,63.0,29.89,West,276,3.0,-999.0,69,-99.99,,,-99.99,,2013-06-17 03:02:00,
2013-06-16 23:12:00,74.0,63.0,29.90,West,280,3.0,-999.0,68,-99.99,,,-99.99,,2013-06-17 03:12:00,
2013-06-16 23:22:00,73.0,62.0,29.90,WNW,283,3.0,-999.0,69,-99.99,,,-99.99,,2013-06-17 03:22:00,
2013-06-16 23:33:00,73.0,62.0,29.90,WNW,283,3.0,-999.0,69,-99.99,,,-99.99,,2013-06-17 03:33:00,
2013-06-16 23:44:00,73.0,63.0,29.89,WNW,293,3.0,-999.0,70,-99.99,,,-99.99,,2013-06-17 03:44:00,
2013-06-16 23:53:00,73.0,63.0,29.89,WNW,300,3.0,-999.0,70,-99.99,,,-99.99,,2013-06-17 03:53:00,